THY8TJ LTFM-LTCG

Flight info

Callsign THY8TJ
Flight time 1h 23m
Altitude 35000
Route EKAWE UT641 ABSAX UN743 GAKSU UT310 SIN UN644 KARDE UL851 TOLUN
Aircraft A321/M-SDE3FGHIRWY/LB1

Departure

Time 2026-05-08 08:46
Airport İstanbul Airport (LTFM)

Arrival

Time 2026-05-08 10:09
Airport Trabzon International Airport (LTCG)
Time Latitude Longitude Altitude Speed Heading
2026-05-08 07:39 41.26422 28.74120 334 ft 0 kts 101°
2026-05-08 08:31 41.26425 28.74099 329 ft 4 kts 101°
2026-05-08 08:31 41.26429 28.74071 334 ft 3 kts 101°
2026-05-08 08:31 41.26433 28.74038 334 ft 4 kts 75°
2026-05-08 08:32 41.26426 28.74012 329 ft 4 kts 60°
2026-05-08 08:32 41.26414 28.73982 334 ft 2 kts 71°
2026-05-08 08:32 41.26413 28.73980 334 ft 0 kts 71°
2026-05-08 08:35 41.26414 28.73982 334 ft 1 kts 71°
2026-05-08 08:36 41.26415 28.73988 334 ft 2 kts 71°
2026-05-08 08:36 41.26436 28.74018 334 ft 7 kts 25°
2026-05-08 08:36 41.26489 28.74025 330 ft 8 kts
2026-05-08 08:36 41.26551 28.74025 334 ft 9 kts 359°
2026-05-08 08:37 41.26596 28.74024 334 ft 10 kts 359°
2026-05-08 08:37 41.26669 28.74022 334 ft 11 kts 359°
2026-05-08 08:37 41.26775 28.74019 330 ft 12 kts 359°
2026-05-08 08:37 41.26860 28.74017 330 ft 13 kts 359°
2026-05-08 08:38 41.26936 28.74016 331 ft 10 kts
2026-05-08 08:38 41.26965 28.74085 334 ft 10 kts 88°
2026-05-08 08:38 41.26967 28.74182 334 ft 11 kts 88°
2026-05-08 08:38 41.26968 28.74251 331 ft 11 kts 89°
2026-05-08 08:39 41.26970 28.74360 332 ft 12 kts 89°
2026-05-08 08:39 41.26971 28.74475 330 ft 13 kts 89°
2026-05-08 08:39 41.26973 28.74597 331 ft 14 kts 89°
2026-05-08 08:39 41.26975 28.74726 334 ft 14 kts 89°
2026-05-08 08:40 41.26977 28.74861 334 ft 15 kts 89°
2026-05-08 08:40 41.26979 28.75001 334 ft 16 kts 89°
2026-05-08 08:40 41.26980 28.75147 333 ft 16 kts 89°
2026-05-08 08:40 41.26982 28.75286 330 ft 11 kts 89°
2026-05-08 08:41 41.27003 28.75365 330 ft 9 kts 31°
2026-05-08 08:41 41.27071 28.75373 334 ft 10 kts
2026-05-08 08:41 41.27147 28.75371 334 ft 12 kts 359°
2026-05-08 08:41 41.27252 28.75368 333 ft 18 kts 359°
2026-05-08 08:42 41.27381 28.75366 333 ft 20 kts 360°
2026-05-08 08:42 41.27534 28.75362 333 ft 23 kts 359°
2026-05-08 08:42 41.27699 28.75357 333 ft 24 kts 359°
2026-05-08 08:42 41.27864 28.75354 333 ft 24 kts 359°
2026-05-08 08:43 41.28027 28.75350 333 ft 24 kts 359°
2026-05-08 08:43 41.28191 28.75347 332 ft 24 kts 359°
2026-05-08 08:43 41.28352 28.75343 332 ft 23 kts 359°
2026-05-08 08:43 41.28513 28.75339 331 ft 23 kts 359°
2026-05-08 08:44 41.28673 28.75334 330 ft 22 kts 359°
2026-05-08 08:44 41.28785 28.75334 334 ft 11 kts
2026-05-08 08:44 41.28817 28.75407 334 ft 11 kts 93°
2026-05-08 08:44 41.28817 28.75509 334 ft 11 kts 89°
2026-05-08 08:45 41.28806 28.75603 334 ft 9 kts 129°
2026-05-08 08:45 41.28737 28.75623 332 ft 16 kts 177°
2026-05-08 08:45 41.28420 28.75625 334 ft 81 kts 180°
2026-05-08 08:45 41.27641 28.75638 332 ft 140 kts 179°
2026-05-08 08:46 41.26591 28.75693 812 ft 146 kts 178°
2026-05-08 08:46 41.25554 28.75832 1461 ft 154 kts 176°
2026-05-08 08:46 41.24436 28.76056 1823 ft 174 kts 174°
2026-05-08 08:46 41.23160 28.76286 2123 ft 196 kts 175°
2026-05-08 08:47 41.21721 28.76515 2410 ft 220 kts 175°
2026-05-08 08:47 41.20105 28.76753 2780 ft 247 kts 176°
2026-05-08 08:47 41.18347 28.76970 3557 ft 258 kts 178°
2026-05-08 08:47 41.16542 28.77171 4423 ft 263 kts 177°
2026-05-08 08:48 41.14736 28.77646 5219 ft 270 kts 157°
2026-05-08 08:48 41.13214 28.79124 5943 ft 277 kts 130°
2026-05-08 08:48 41.12324 28.81400 6681 ft 284 kts 103°
2026-05-08 08:48 41.12306 28.84020 7405 ft 289 kts 76°
2026-05-08 08:49 41.13204 28.86406 8109 ft 293 kts 50°
2026-05-08 08:49 41.14524 28.88476 8848 ft 295 kts 49°
2026-05-08 08:49 41.15870 28.90552 9567 ft 298 kts 48°
2026-05-08 08:49 41.17361 28.92465 10272 ft 299 kts 34°
2026-05-08 08:50 41.19178 28.93784 10977 ft 298 kts 18°
2026-05-08 08:50 41.21188 28.94406 11672 ft 297 kts
2026-05-08 08:50 41.23277 28.94431 12109 ft 310 kts 358°
2026-05-08 08:50 41.25504 28.94390 12247 ft 331 kts 358°
2026-05-08 08:51 41.27883 28.94340 12419 ft 350 kts 357°
2026-05-08 08:51 41.30319 28.93938 12880 ft 356 kts 346°
2026-05-08 08:51 41.32674 28.92898 13450 ft 358 kts 335°
2026-05-08 08:51 41.34893 28.91370 14064 ft 361 kts 331°
2026-05-08 08:52 41.37115 28.89783 14679 ft 364 kts 330°
2026-05-08 08:52 41.39355 28.88186 15289 ft 367 kts 331°
2026-05-08 08:52 41.41614 28.86575 15876 ft 369 kts 331°
2026-05-08 08:52 41.43916 28.85023 16453 ft 373 kts 336°
2026-05-08 08:53 41.46412 28.84003 17007 ft 378 kts 347°
2026-05-08 08:53 41.48959 28.83656 17542 ft 383 kts 358°
2026-05-08 08:53 41.51635 28.83791 18099 ft 386 kts
2026-05-08 08:53 41.54326 28.83947 18628 ft 389 kts
2026-05-08 08:54 41.57040 28.84098 19139 ft 392 kts
2026-05-08 08:54 41.59775 28.84247 19657 ft 394 kts
2026-05-08 08:54 41.62528 28.84395 20160 ft 397 kts
2026-05-08 08:54 41.65300 28.84542 20635 ft 401 kts
2026-05-08 08:55 41.68098 28.84701 21110 ft 404 kts
2026-05-08 08:55 41.70869 28.85449 21535 ft 411 kts 18°
2026-05-08 08:55 41.73395 28.87294 21951 ft 419 kts 36°
2026-05-08 08:55 41.75420 28.90127 22355 ft 426 kts 54°
2026-05-08 08:56 41.76731 28.93711 22740 ft 433 kts 72°
2026-05-08 08:56 41.77228 28.97702 23132 ft 438 kts 84°
2026-05-08 08:56 41.77474 29.01780 23530 ft 440 kts 84°
2026-05-08 08:56 41.77706 29.05893 23901 ft 444 kts 84°
2026-05-08 08:57 41.77932 29.10030 24272 ft 447 kts 84°
2026-05-08 08:57 41.78158 29.14190 24652 ft 449 kts 84°
2026-05-08 08:57 41.78425 29.18363 25008 ft 451 kts 80°
2026-05-08 08:57 41.79103 29.22457 25349 ft 450 kts 70°
2026-05-08 08:58 41.80270 29.26346 25691 ft 450 kts 60°
2026-05-08 08:58 41.81889 29.29925 26034 ft 449 kts 51°
2026-05-08 08:58 41.83885 29.33134 26385 ft 449 kts 46°
2026-05-08 08:58 41.85958 29.36276 26726 ft 451 kts 46°
2026-05-08 08:59 41.87967 29.39337 27054 ft 453 kts 46°
2026-05-08 08:59 41.90046 29.42525 27381 ft 455 kts 46°
2026-05-08 08:59 41.92131 29.45735 27698 ft 457 kts 46°
2026-05-08 08:59 41.94223 29.48950 28018 ft 459 kts 46°
2026-05-08 09:00 41.96331 29.52180 28317 ft 460 kts 46°
2026-05-08 09:00 41.98448 29.55418 28621 ft 462 kts 46°
2026-05-08 09:00 42.00572 29.58674 28916 ft 464 kts 46°
2026-05-08 09:00 42.02533 29.62136 29198 ft 468 kts 56°
2026-05-08 09:01 42.04055 29.66025 29499 ft 473 kts 66°
2026-05-08 09:01 42.05070 29.70243 29775 ft 476 kts 76°
2026-05-08 09:01 42.05536 29.74646 30143 ft 477 kts 86°
2026-05-08 09:01 42.05454 29.79110 30510 ft 477 kts 95°
2026-05-08 09:02 42.05142 29.83544 30860 ft 477 kts 94°
2026-05-08 09:02 42.04832 29.87990 31204 ft 477 kts 94°
2026-05-08 09:02 42.04521 29.92425 31556 ft 476 kts 95°
2026-05-08 09:02 42.04212 29.96851 31898 ft 475 kts 94°
2026-05-08 09:03 42.03901 30.01274 32225 ft 475 kts 95°
2026-05-08 09:03 42.03585 30.05701 32559 ft 475 kts 95°
2026-05-08 09:03 42.03264 30.10112 32870 ft 474 kts 95°
2026-05-08 09:03 42.02943 30.14530 33180 ft 474 kts 95°
2026-05-08 09:04 42.02623 30.18939 33496 ft 473 kts 95°
2026-05-08 09:04 42.02304 30.23344 33802 ft 473 kts 95°
2026-05-08 09:04 42.01983 30.27746 34091 ft 473 kts 95°
2026-05-08 09:04 42.01659 30.32138 34393 ft 472 kts 95°
2026-05-08 09:05 42.01332 30.36539 34660 ft 472 kts 95°
2026-05-08 09:05 42.01006 30.40932 34907 ft 473 kts 94°
2026-05-08 09:05 42.00678 30.45329 35091 ft 474 kts 95°
2026-05-08 09:05 42.00344 30.49732 35140 ft 472 kts 95°
2026-05-08 09:06 41.99783 30.58518 35132 ft 470 kts 88°
2026-05-08 09:06 41.99860 30.67337 35138 ft 473 kts 87°
2026-05-08 09:07 41.99934 30.76199 35138 ft 474 kts 87°
2026-05-08 09:07 41.99983 30.85003 35129 ft 474 kts 87°
2026-05-08 09:08 42.00022 30.93879 35141 ft 474 kts 87°
2026-05-08 09:08 42.00323 31.02704 35156 ft 470 kts 77°
2026-05-08 09:09 42.01970 31.11138 35159 ft 466 kts 70°
2026-05-08 09:09 42.03759 31.19515 35160 ft 465 kts 70°
2026-05-08 09:10 42.05504 31.27801 35160 ft 465 kts 70°
2026-05-08 09:10 42.07269 31.36174 35159 ft 464 kts 70°
2026-05-08 09:11 42.09024 31.44529 35157 ft 464 kts 70°
2026-05-08 09:11 42.10774 31.52890 35155 ft 464 kts 70°
2026-05-08 09:12 42.12526 31.61249 35143 ft 464 kts 70°
2026-05-08 09:12 42.14281 31.69636 35125 ft 466 kts 70°
2026-05-08 09:13 42.16025 31.78045 35126 ft 467 kts 71°
2026-05-08 09:13 42.17761 31.86498 35131 ft 468 kts 71°
2026-05-08 09:14 42.19502 31.94956 35138 ft 468 kts 71°
2026-05-08 09:14 42.21233 32.03418 35148 ft 468 kts 71°
2026-05-08 09:15 42.22952 32.11887 35154 ft 468 kts 71°
2026-05-08 09:15 42.24674 32.20368 35162 ft 469 kts 71°
2026-05-08 09:16 42.26514 32.28795 35170 ft 468 kts 69°
2026-05-08 09:16 42.28498 32.37154 35176 ft 467 kts 68°
2026-05-08 09:17 42.30150 32.44167 35181 ft 467 kts 69°
2026-05-08 09:17 42.32057 32.52549 35185 ft 467 kts 71°
2026-05-08 09:18 42.32856 32.61297 35186 ft 474 kts 90°
2026-05-08 09:18 42.32024 32.70144 35189 ft 475 kts 96°
2026-05-08 09:19 42.31045 32.78968 35191 ft 475 kts 96°
2026-05-08 09:19 42.30051 32.87780 35195 ft 474 kts 96°
2026-05-08 09:20 42.29040 32.96563 35198 ft 474 kts 96°
2026-05-08 09:20 42.28017 33.05360 35204 ft 473 kts 96°
2026-05-08 09:21 42.26997 33.14062 35204 ft 472 kts 96°
2026-05-08 09:23 42.23373 33.44705 35214 ft 470 kts 96°
2026-05-08 09:23 42.22331 33.53413 35213 ft 470 kts 96°
2026-05-08 09:24 42.21288 33.62062 35219 ft 470 kts 96°
2026-05-08 09:24 42.20227 33.70815 35223 ft 470 kts 96°
2026-05-08 09:25 42.19162 33.79502 35224 ft 469 kts 96°
2026-05-08 09:25 42.18098 33.88125 35230 ft 469 kts 96°
2026-05-08 09:26 42.17012 33.96847 35235 ft 469 kts 96°
2026-05-08 09:26 42.15929 34.05513 35238 ft 469 kts 96°
2026-05-08 09:27 42.14855 34.14121 35239 ft 469 kts 96°
2026-05-08 09:27 42.13766 34.22787 35239 ft 469 kts 96°
2026-05-08 09:28 42.12667 34.31432 35241 ft 468 kts 97°
2026-05-08 09:28 42.11552 34.40082 35241 ft 468 kts 97°
2026-05-08 09:29 42.10414 34.48706 35241 ft 468 kts 97°
2026-05-08 09:29 42.09228 34.57326 35242 ft 468 kts 98°
2026-05-08 09:30 42.08020 34.65930 35243 ft 467 kts 98°
2026-05-08 09:30 42.06837 34.74374 35243 ft 466 kts 98°
2026-05-08 09:31 42.05638 34.82940 35243 ft 465 kts 98°
2026-05-08 09:31 42.04447 34.91483 35241 ft 464 kts 98°
2026-05-08 09:32 42.03303 35.00038 35242 ft 464 kts 97°
2026-05-08 09:32 42.02256 35.08582 35242 ft 461 kts 92°
2026-05-08 09:33 42.01805 35.17184 35242 ft 460 kts 91°
2026-05-08 09:33 42.01351 35.25764 35242 ft 460 kts 91°
2026-05-08 09:34 42.00892 35.34336 35242 ft 459 kts 92°
2026-05-08 09:34 42.00429 35.42902 35242 ft 459 kts 92°
2026-05-08 09:35 41.99960 35.51452 35243 ft 459 kts 92°
2026-05-08 09:35 41.99478 35.59996 35239 ft 458 kts 92°
2026-05-08 09:36 41.98992 35.68388 35235 ft 458 kts 92°
2026-05-08 09:36 41.98496 35.76931 35234 ft 458 kts 92°
2026-05-08 09:37 41.98002 35.85466 35233 ft 458 kts 92°
2026-05-08 09:37 41.97495 35.93988 35233 ft 457 kts 92°
2026-05-08 09:38 41.96992 36.02487 35230 ft 456 kts 92°
2026-05-08 09:38 41.96485 36.10991 35226 ft 457 kts 92°
2026-05-08 09:39 41.95967 36.19490 35222 ft 457 kts 92°
2026-05-08 09:39 41.95439 36.27992 35220 ft 457 kts 92°
2026-05-08 09:40 41.94905 36.36488 35217 ft 456 kts 92°
2026-05-08 09:40 41.94365 36.44982 35216 ft 457 kts 92°
2026-05-08 09:41 41.93816 36.53486 35217 ft 457 kts 92°
2026-05-08 09:41 41.93272 36.61883 35218 ft 457 kts 92°
2026-05-08 09:42 41.92715 36.70384 35220 ft 457 kts 92°
2026-05-08 09:42 41.92145 36.78888 35220 ft 457 kts 92°
2026-05-08 09:43 41.91562 36.87397 35223 ft 458 kts 92°
2026-05-08 09:43 41.90981 36.95906 35208 ft 458 kts 92°
2026-05-08 09:43 41.90687 37.00163 34842 ft 457 kts 93°
2026-05-08 09:44 41.90166 37.04370 34468 ft 458 kts 102°
2026-05-08 09:44 41.89178 37.08437 34088 ft 460 kts 110°
2026-05-08 09:44 41.87922 37.12397 33718 ft 460 kts 110°
2026-05-08 09:44 41.86672 37.16345 33345 ft 460 kts 110°
2026-05-08 09:45 41.85428 37.20302 32971 ft 460 kts 110°
2026-05-08 09:45 41.84187 37.24262 32592 ft 461 kts 110°
2026-05-08 09:45 41.82941 37.28223 32217 ft 461 kts 110°
2026-05-08 09:45 41.81687 37.32187 31846 ft 461 kts 110°
2026-05-08 09:46 41.80434 37.36135 31466 ft 459 kts 110°
2026-05-08 09:46 41.79185 37.40067 31090 ft 457 kts 110°
2026-05-08 09:46 41.77948 37.43972 30713 ft 454 kts 109°
2026-05-08 09:46 41.76717 37.47857 30335 ft 451 kts 109°
2026-05-08 09:47 41.75510 37.51656 29965 ft 449 kts 109°
2026-05-08 09:47 41.74287 37.55488 29493 ft 446 kts 109°
2026-05-08 09:47 41.73054 37.59341 28987 ft 442 kts 109°
2026-05-08 09:47 41.71848 37.63111 28484 ft 439 kts 109°
2026-05-08 09:48 41.70669 37.66798 27986 ft 435 kts 110°
2026-05-08 09:48 41.69484 37.70498 27491 ft 431 kts 110°
2026-05-08 09:48 41.68309 37.74162 26992 ft 427 kts 110°
2026-05-08 09:48 41.67144 37.77792 26492 ft 423 kts 110°
2026-05-08 09:49 41.65987 37.81387 25992 ft 419 kts 110°
2026-05-08 09:49 41.64842 37.84948 25491 ft 415 kts 110°
2026-05-08 09:49 41.63708 37.88474 24983 ft 411 kts 110°
2026-05-08 09:49 41.62581 37.91974 24490 ft 408 kts 111°
2026-05-08 09:50 41.61460 37.95440 23989 ft 405 kts 111°
2026-05-08 09:50 41.60345 37.98874 23491 ft 402 kts 111°
2026-05-08 09:50 41.59234 38.02295 22988 ft 400 kts 111°
2026-05-08 09:50 41.58128 38.05692 22475 ft 398 kts 111°
2026-05-08 09:51 41.57027 38.09071 21993 ft 396 kts 111°
2026-05-08 09:51 41.55933 38.12434 21486 ft 394 kts 111°
2026-05-08 09:51 41.54842 38.15787 20985 ft 393 kts 111°
2026-05-08 09:51 41.53756 38.19124 20484 ft 392 kts 111°
2026-05-08 09:52 41.52672 38.22447 19982 ft 389 kts 111°
2026-05-08 09:52 41.51593 38.25749 19503 ft 387 kts 111°
2026-05-08 09:52 41.50524 38.29011 19124 ft 381 kts 111°
2026-05-08 09:52 41.49468 38.32230 18744 ft 376 kts 111°
2026-05-08 09:53 41.48427 38.35399 18367 ft 370 kts 112°
2026-05-08 09:53 41.47399 38.38526 17984 ft 366 kts 112°
2026-05-08 09:53 41.46379 38.41626 17615 ft 364 kts 112°
2026-05-08 09:53 41.45365 38.44705 17237 ft 362 kts 112°
2026-05-08 09:54 41.44353 38.47772 16863 ft 361 kts 112°
2026-05-08 09:54 41.43346 38.50823 16490 ft 359 kts 112°
2026-05-08 09:54 41.42342 38.53865 16117 ft 357 kts 112°
2026-05-08 09:54 41.41346 38.56888 15738 ft 355 kts 112°
2026-05-08 09:55 41.40353 38.59894 15363 ft 354 kts 112°
2026-05-08 09:55 41.39362 38.62886 14993 ft 352 kts 112°
2026-05-08 09:55 41.38373 38.65864 14611 ft 350 kts 112°
2026-05-08 09:55 41.37387 38.68827 14236 ft 349 kts 113°
2026-05-08 09:56 41.36404 38.71769 13875 ft 347 kts 113°
2026-05-08 09:56 41.35426 38.74697 13548 ft 346 kts 113°
2026-05-08 09:56 41.34453 38.77616 13224 ft 344 kts 113°
2026-05-08 09:56 41.33488 38.80522 12899 ft 343 kts 113°
2026-05-08 09:57 41.30724 38.88992 11942 ft 338 kts 113°
2026-05-08 09:57 41.29793 38.91857 11667 ft 337 kts 113°
2026-05-08 09:58 41.28864 38.94706 11422 ft 334 kts 113°
2026-05-08 09:58 41.27943 38.97516 11042 ft 329 kts 113°
2026-05-08 09:58 41.27030 39.00290 10627 ft 325 kts 113°
2026-05-08 09:58 41.26135 39.03006 10432 ft 315 kts 113°
2026-05-08 09:59 41.25271 39.05629 10294 ft 304 kts 113°
2026-05-08 09:59 41.24437 39.08164 10087 ft 296 kts 113°
2026-05-08 09:59 41.23623 39.10641 9999 ft 291 kts 113°
2026-05-08 09:59 41.22810 39.13112 9841 ft 294 kts 113°
2026-05-08 10:00 41.21990 39.15605 9424 ft 294 kts 113°
2026-05-08 10:00 41.21066 39.18023 9044 ft 293 kts 121°
2026-05-08 10:00 41.20009 39.20326 8681 ft 292 kts 121°
2026-05-08 10:00 41.18955 39.22624 8301 ft 291 kts 121°
2026-05-08 10:01 41.17906 39.24913 7955 ft 289 kts 121°
2026-05-08 10:01 41.16864 39.27187 7578 ft 288 kts 121°
2026-05-08 10:01 41.15828 39.29443 7222 ft 286 kts 121°
2026-05-08 10:01 41.14809 39.31659 6886 ft 284 kts 121°
2026-05-08 10:02 41.13780 39.33894 6542 ft 282 kts 121°
2026-05-08 10:02 41.12762 39.36118 6158 ft 281 kts 118°
2026-05-08 10:02 41.11923 39.38459 5656 ft 285 kts 112°
2026-05-08 10:02 41.11189 39.40933 5100 ft 291 kts 111°
2026-05-08 10:03 41.10442 39.43441 4570 ft 294 kts 111°
2026-05-08 10:03 41.09684 39.45920 4041 ft 283 kts 112°
2026-05-08 10:03 41.08968 39.48250 3864 ft 265 kts 112°
2026-05-08 10:03 41.08301 39.50426 3738 ft 243 kts 111°
2026-05-08 10:04 41.07690 39.52417 3628 ft 223 kts 112°
2026-05-08 10:04 41.07116 39.54287 3512 ft 212 kts 112°
2026-05-08 10:04 41.06596 39.55981 3413 ft 185 kts 112°
2026-05-08 10:04 41.06136 39.57477 3320 ft 169 kts 112°
2026-05-08 10:05 41.05699 39.58902 3263 ft 166 kts 112°
2026-05-08 10:05 41.05265 39.60315 3089 ft 165 kts 112°
2026-05-08 10:05 41.04841 39.61693 2893 ft 157 kts 111°
2026-05-08 10:05 41.04435 39.63011 2663 ft 152 kts 111°
2026-05-08 10:06 41.04038 39.64298 2452 ft 149 kts 112°
2026-05-08 10:06 41.03654 39.65548 2210 ft 147 kts 112°
2026-05-08 10:06 41.03394 39.66395 2069 ft 146 kts 111°
2026-05-08 10:06 41.03019 39.67643 1853 ft 145 kts 111°
2026-05-08 10:07 41.02636 39.68876 1627 ft 144 kts 112°
2026-05-08 10:07 41.02255 39.70097 1421 ft 143 kts 112°
2026-05-08 10:07 41.01880 39.71310 1210 ft 142 kts 111°
2026-05-08 10:07 41.01505 39.72511 1006 ft 141 kts 111°
2026-05-08 10:08 41.01138 39.73707 805 ft 140 kts 111°
2026-05-08 10:08 41.00768 39.74898 600 ft 140 kts 111°
2026-05-08 10:08 41.00408 39.76080 382 ft 141 kts 111°
2026-05-08 10:08 41.00037 39.77264 202 ft 138 kts 111°
2026-05-08 10:09 40.99686 39.78391 109 ft 119 kts 112°
2026-05-08 10:09 40.99440 39.79199 105 ft 68 kts 112°
2026-05-08 10:09 40.99316 39.79587 109 ft 33 kts 112°
2026-05-08 10:09 40.99230 39.79869 107 ft 33 kts 112°
2026-05-08 10:10 40.99151 39.80120 104 ft 21 kts 112°
2026-05-08 10:10 40.99096 39.80242 104 ft 15 kts 141°
2026-05-08 10:10 40.99024 39.80343 103 ft 13 kts 102°
2026-05-08 10:10 40.99076 39.80370 102 ft 11 kts 313°
2026-05-08 10:11 40.99111 39.80262 103 ft 16 kts 291°
2026-05-08 10:11 40.99157 39.80100 104 ft 22 kts 290°
2026-05-08 10:11 40.99220 39.79902 107 ft 24 kts 293°
2026-05-08 10:11 40.99285 39.79696 107 ft 24 kts 292°
2026-05-08 10:12 40.99347 39.79486 107 ft 25 kts 291°
2026-05-08 10:12 40.99389 39.79307 106 ft 17 kts 265°
2026-05-08 10:12 40.99344 39.79148 103 ft 20 kts 248°
2026-05-08 10:12 40.99359 39.78984 110 ft 15 kts 291°
2026-05-08 10:13 40.99393 39.78870 113 ft 13 kts 292°
2026-05-08 10:13 40.99430 39.78753 114 ft 14 kts 292°
2026-05-08 10:13 40.99469 39.78627 115 ft 15 kts 292°
2026-05-08 10:13 40.99510 39.78491 115 ft 16 kts 292°
2026-05-08 10:14 40.99555 39.78349 115 ft 17 kts 293°
2026-05-08 10:14 40.99591 39.78231 115 ft 11 kts 292°
2026-05-08 10:14 40.99617 39.78149 113 ft 5 kts 292°
2026-05-08 10:14 40.99607 39.78107 115 ft 5 kts 222°
2026-05-08 10:15 40.99577 39.78088 111 ft 3 kts 203°
2026-05-08 10:15 40.99567 39.78083 116 ft 1 kts 202°
2026-05-08 10:15 40.99566 39.78083 116 ft 0 kts 202°